User: anonymous   Login
Location: Unspecified
(0.0000°N, 0.0000°E)
Time: 20:01:38
(UTC+00:00)
Language:

ITUPSAT 1 - Orbit

View from above orbital plane
View from above orbital plane
View from above satellite
View from above satellite

Ground track
Ground track

The orbit data is extracted from the following two-line orbital elements,

1 35935U 09051E   17144.94049382 +.00000104 +00000-0 +35032-4 0  9998
2 35935 098.5070 284.5830 0007515 337.4740 022.6126 14.55320945406829
Epoch (UTC): 24 May 2017 22:34:18
Eccentricity: 0.0007515
inclination: 98.5070°
perigee height: 703 km
apogee height: 713 km
right ascension of ascending node: 284.5830°
argument of perigee: 337.4740°
revolutions per day: 14.55320945
mean anomaly at epoch: 22.6126°
orbit number at epoch: 40682

The dashed part of the orbit path shows where the satellite is in the earth's shadow,  

DLR